Regional Weather Roundup
Issued by NWS

Home | Current Version | Previous Version | Graphics & Text | Print | Product List | Glossary On
Versions: 1 2 3 4 5 6 7 8 9 10 11 12 13 14 15 16 17 18 19 20 21 22 23 24 25 26 27 28 29 30 31 32 33 34 35 36 37 38 39 40 41 42 43 44 45 46 47 48 49 50
000
ASUS45 KSLC 220510
RWRUT

UTAH REGIONAL WEATHER ROUNDUP
NATIONAL WEATHER SERVICE SALT LAKE CITY UT
1100 PM MDT THU SEP 21 2017

UTZ001>011-023>025-220600-

NORTHERN UTAH

CITY           SKY/WX    TMP DP  RH WIND       PRES   REMARKS
BRIGHAM CITY   CLOUDY    42  38  88 S5        29.83F
HILL AFB       LGT RAIN  39  38  94 SE6       29.84F WCI  35
LOGAN          CLOUDY    41  38  89 S5        29.83F
OGDEN          LGT RAIN  41  38  89 SE5       29.84F
SALT LAKE CITY RAIN      42  39  89 SE8       29.86S
TOOELE VALLEY  CLOUDY    36  36 100 S6        29.86F WCI  31
WENDOVER       CLOUDY    43  38  82 SW5       29.86S
HEBER CITY     CLOUDY    45  36  70 NW8       29.78R
WEST JORDAN    CLOUDY    38  38 100 CALM      29.88F

$$

UTZ011>015-024>027-220600-

CENTRAL/NORTHEAST UTAH

CITY           SKY/WX    TMP DP  RH WIND       PRES   REMARKS
PROVO AIRPORT  LGT RAIN  41  39  93 NW20      29.87R
MOAB/CANYONLAN PTCLDY    77  26  15 SW26G37   29.62R
DELTA          CLOUDY    36  36 100 CALM      29.86R
PRICE          MOCLDY    63  28  26 S14       29.67R
ROOSEVELT      PTCLDY    68  32  26 W17       29.63R
VERNAL         CLEAR     72  26  18 S22G30    29.61S

$$

UTZ013>016-019>022-027-220600-

SOUTHERN UTAH

CITY           SKY/WX    TMP DP  RH WIND       PRES   REMARKS
BRYCE CANYON   CLOUDY    54  29  38 S21G31    29.84F
CEDAR CITY     LGT RAIN  42  40  92 N13       29.81R
MILFORD        LGT RAIN  38  37  97 N18       29.84F WCI  28
ST GEORGE      CLOUDY    70  36  28 W17       29.67R
HANKSVILLE     MOCLDY    73  32  21 SW13      29.66R
BLANDING         N/A     67  29  24 S17G29    29.91R

$$

REGIONAL REPORTS     COLORADO/ARIZONA

CITY           SKY/WX    TMP DP  RH WIND       PRES   REMARKS
CRAIG, CO      CLEAR     48  32  53 CALM      29.76R
GRAND JUNCTION CLEAR     75  21  13 SE18      29.71R
RIFLE, CO      CLEAR     74  17  11 S23G30    29.74R
MONTROSE, CO   CLEAR     67  20  16 SE7       29.84R
CORTEZ, CO     CLEAR     63  26  24 S5        29.89R
PAGE, AZ       CLEAR     73  36  25 S16G24    29.71R
GRAND CANYON   PTCLDY    57  37  47 S10       29.89F
KINGMAN, AZ    PTCLDY    68  42  38 SW20G26   29.76R
FLAGSTAFF, AZ  CLEAR     56  36  47 SW12      29.95S

$$

REGIONAL REPORTS    NEVADA/IDAHO/WYOMING

CITY           SKY/WX    TMP DP  RH WIND       PRES   REMARKS
LAS VEGAS, NV  PTCLDY    68  19  15 SW23G32   29.68R
ELY, NY        CLOUDY    32  32 100 W7        29.85F WCI  26
ELKO, NV       CLOUDY    40  36  86 W6        29.85S
POCATELLO, ID  CLOUDY    39  38  96 E7        29.80F WCI  34
BURLEY, ID     CLOUDY    43  39  86 SW7       29.81F
FORT BRIDGER,  CLOUDY    44  40  88 W24G30    29.78R
EVANSTON, WY   FLURRIES  35  34  96 W15       29.84R WCI  25
ROCK SPRINGS,  CLOUDY    57  26  30 SW12      29.70S
KEMMERER, WY     N/A     39  37  93 W17G24    29.79R WCI  30

$$



USA.gov is the U.S. government's official web portal to all federal, state and local government web resources and services.